Torna al catalogo

DELTA 1 DEB

AttivoSSO
NORAD 7029·DEBRIS·🇺🇸 United States

Lanciato Nov 6, 1973 da Vandenberg Space Force Base

Loading…

Prossimi Passaggi (prossime 24 ore)

TLE

AggiornatoSource: Space-Track

Epoca: Sep 14, 2026, 13:27 UTC

1 07029U 73086V   26257.56099646 -.00000046  00000-0  40089-5 0  9996
2 07029 102.3489 275.7986 0012638  79.5536  74.5286 12.37176492386838

Traccia DELTA 1 DEB in tempo reale con AllMySat

Download on the App Store